Airfield :
LOGIN :

Register | Disclaimer

   EN    FR    IT 

 










Legend :    VFR   Marginal VFR   IFR   Intensive IFR   Very Intensive IFR
Visi :
Ceiling :
>= 8 km
>= 3000ft
5 to 8 km
1000 to 3000 ft
1500m to 5 km
500 to 1000 ft
800 to 1500m
200 to 500 ft
< 800m
< 200 ft
Symbols :   Thunderstorms  Fog  Heavy snow  Heavy precipitations  Wind > 20 kt
SIGMETs :     Misc.  Thunderstorms  Icing  Turbulence  Mountain Waves  Volcanic Ashes






- Airport Elevation : 36 ft
- IATA code : LTQ


LFAT - Le Touquet

CURRENT METAR :
  • 311030Z AUTO 09011KT 050V130 CAVOK 23/05 Q1021

EXPIRED METARs :
  • 311000Z AUTO 08010KT 030V110 CAVOK 23/05 Q1021
  • 310930Z AUTO 09008KT 040V170 CAVOK 23/06 Q1021
  • 310900Z AUTO 10008KT 070V160 CAVOK 22/06 Q1021
  • 310830Z AUTO 12009KT CAVOK 21/07 Q1021
  • 310800Z AUTO 10008KT 070V130 CAVOK 20/06 Q1021
  • 310730Z AUTO 10007KT 070V150 CAVOK 20/07 Q1021

Expired Forecast.
ATIS : +33 3 21 06 62 84



MET'MAP, your aeronautical weather chart ! - Copyright ORBIFLY December 2007 - Disclaimer

ORBIFLY MET'MAP TEAM :

Programming & Development : Alexandra Zaïnal
Concept & original design : Baudouin d'Aumeries
Assistance for programming : Marc-Olivier Méhu
Technical & hardware support : Manuel Goepfert

Contact : metmap@orbifly.com




SOURCES & CREDITS :

   NOAA